FW9306 Weather Reports


Display with metric or nautical units.
time (UTC)temp
F
wind
direction
speed
MPH
gust
MPH
rain 1hr
in
rain 24hr
in
rain mn
in
humidity
%
barometer
mb
20260510170459 89 210 1.0 2.0 0.00 0.00 0.00 15 1013.6
20260510165955 88 312 1.0 3.0 0.00 0.00 0.00 17 1014.1
20260510165451 89 237 4.0 5.0 0.00 0.00 0.00 18 1013.5
20260510164948 88 168 0.0 1.0 0.00 0.00 0.00 15 1013.6
20260510164445 87 203 3.0 3.0 0.00 0.00 0.00 16 1013.8
20260510163941 87 247 3.0 3.0 0.00 0.00 0.00 16 1013.8
20260510163437 88 181 1.0 1.0 0.00 0.00 0.00 16 1013.7
20260510162931 87 182 0.0 0.0 0.00 0.00 0.00 16 1013.8
20260510162429 87 172 0.0 0.0 0.00 0.00 0.00 16 1013.7
20260510161925 86 238 1.0 1.0 0.00 0.00 0.00 18 1014.0
20260510161420 86 227 1.0 1.0 0.00 0.00 0.00 16 1013.7
20260510160918 87 205 0.0 0.0 0.00 0.00 0.00 15 1013.8
20260510160415 86 198 1.0 1.0 0.00 0.00 0.00 17 1013.6
20260510155914 86 237 2.0 2.0 0.00 0.00 0.00 16 1013.7
20260510155411 87 156 1.0 1.0 0.00 0.00 0.00 16 1013.8
20260510154907 86 128 1.0 1.0 0.00 0.00 0.00 16 1013.7
20260510154404 85 174 0.0 0.0 0.00 0.00 0.00 17 1013.6
20260510153857 85 169 0.0 0.0 0.00 0.00 0.00 18 1013.7
20260510153353 85 156 2.0 2.0 0.00 0.00 0.00 19 1013.4
20260510152850 85 183 0.0 1.0 0.00 0.00 0.00 17 1014.0
20260510152348 83 125 0.0 0.0 0.00 0.00 0.00 17 1013.5
20260510151844 83 180 0.0 1.0 0.00 0.00 0.00 18 1013.7
20260510151342 84 173 0.0 0.0 0.00 0.00 0.00 18 1014.0
20260510150837 82 179 1.0 1.0 0.00 0.00 0.00 20 1013.7
20260510150333 81 183 0.0 1.0 0.00 0.00 0.00 21 1013.7
20260510145830 81 149 1.0 1.0 0.00 0.00 0.00 21 1013.7
20260510145326 80 167 0.0 0.0 0.00 0.00 0.00 22 1013.6
20260510144823 79 178 0.0 0.0 0.00 0.00 0.00 23 1013.6
20260510144320 77 158 1.0 2.0 0.00 0.00 0.00 24 1013.6
20260510143819 75 173 2.0 3.0 0.00 0.00 0.00 24 1013.5
20260510143315 75 191 1.0 2.0 0.00 0.00 0.00 25 1013.5
20260510142812 74 196 2.0 3.0 0.00 0.00 0.00 26 1013.6
20260510142309 73 185 2.0 3.0 0.00 0.00 0.00 25 1013.5
20260510141806 73 168 1.0 1.0 0.00 0.00 0.00 26 1013.6
20260510141304 72 174 1.0 1.0 0.00 0.00 0.00 26 1013.6
20260510140801 71 168 1.0 1.0 0.00 0.00 0.00 26 1013.5
20260510140256 70 161 1.0 1.0 0.00 0.00 0.00 27 1013.5
20260510135750 70 153 1.0 1.0 0.00 0.00 0.00 27 1013.6
20260510135246 69 163 0.0 0.0 0.00 0.00 0.00 28 1013.2
20260510134744 68 126 1.0 1.0 0.00 0.00 0.00 28 1013.2
20260510134241 68 188 2.0 3.0 0.00 0.00 0.00 29 1013.3
20260510133736 68 206 2.0 3.0 0.00 0.00 0.00 29 1013.1
20260510133232 67 176 1.0 2.0 0.00 0.00 0.00 29 1013.1
20260510132728 67 178 1.0 2.0 0.00 0.00 0.00 28 1012.9
20260510132226 67 166 0.0 1.0 0.00 0.00 0.00 29 1013.0
20260510131723 66 169 0.0 1.0 0.00 0.00 0.00 29 1012.9
20260510131221 66 191 2.0 2.0 0.00 0.00 0.00 29 1013.0
20260510130717 66 139 1.0 2.0 0.00 0.00 0.00 29 1012.9
20260510130214 65 190 0.0 0.0 0.00 0.00 0.00 30 1012.8
20260510125710 65 198 2.0 2.0 0.00 0.00 0.00 30 1012.8
20260510125207 64 148 2.0 2.0 0.00 0.00 0.00 30 1012.8
20260510124703 63 188 0.0 0.0 0.00 0.00 0.00 33 1012.8
20260510124201 63 188 1.0 1.0 0.00 0.00 0.00 33 1012.8
20260510123656 63 195 1.0 1.0 0.00 0.00 0.00 32 1012.8
20260510123152 63 178 1.0 2.0 0.00 0.00 0.00 32 1012.5
20260510122648 63 194 1.0 1.0 0.00 0.00 0.00 31 1012.7
20260510122144 63 177 0.0 0.0 0.00 0.00 0.00 32 1012.3
20260510121641 64 187 1.0 1.0 0.00 0.00 0.00 30 1012.2
20260510121138 63 183 1.0 2.0 0.00 0.00 0.00 31 1012.3
20260510120636 63 183 2.0 2.0 0.00 0.00 0.00 31 1012.3
20260510120132 64 152 1.0 1.0 0.00 0.00 0.00 32 1012.3
20260510115628 64 198 2.0 2.0 0.00 0.00 0.00 31 1012.3
20260510115127 65 194 0.0 1.0 0.00 0.00 0.00 30 1012.3
20260510114621 65 165 1.0 1.0 0.00 0.00 0.00 30 1012.4
20260510114118 64 113 1.0 2.0 0.00 0.00 0.00 30 1012.3
20260510113613 64 157 1.0 1.0 0.00 0.00 0.00 30 1012.2
20260510113111 65 146 0.0 1.0 0.00 0.00 0.00 30 1012.3
20260510112607 65 213 3.0 3.0 0.00 0.00 0.00 29 1011.9
20260510112104 64 171 1.0 1.0 0.00 0.00 0.00 30 1012.3
20260510111600 63 141 1.0 1.0 0.00 0.00 0.00 31 1012.2
20260510111056 63 188 1.0 1.0 0.00 0.00 0.00 31 1012.0
20260510110552 64 205 3.0 3.0 0.00 0.00 0.00 31 1012.0
20260510110049 64 198 2.0 2.0 0.00 0.00 0.00 30 1012.0
20260510105544 64 171 0.0 1.0 0.00 0.00 0.00 30 1012.0
20260510105039 64 165 1.0 1.0 0.00 0.00 0.00 32 1012.0
20260510104536 64 171 0.0 0.0 0.00 0.00 0.00 33 1012.0
20260510104033 64 176 2.0 2.0 0.00 0.00 0.00 33 1012.1
20260510103530 65 193 2.0 2.0 0.00 0.00 0.00 32 1012.0
20260510103026 65 192 0.0 1.0 0.00 0.00 0.00 32 1012.0
20260510102522 67 201 2.0 2.0 0.00 0.00 0.00 32 1011.9
20260510102018 69 143 1.0 1.0 0.00 0.00 0.00 27 1011.6
20260510101516 69 91 1.0 1.0 0.00 0.00 0.00 29 1011.7
20260510101015 69 63 1.0 2.0 0.00 0.00 0.00 28 1011.7
20260510100510 69 60 2.0 2.0 0.00 0.00 0.00 29 1011.5
20260510100007 68 57 1.0 2.0 0.00 0.00 0.00 29 1011.7
20260510095503 68 45 2.0 2.0 0.00 0.00 0.00 27 1011.6
20260510095002 68 191 0.0 0.0 0.00 0.00 0.00 27 1011.7
20260510094457 67 165 1.0 1.0 0.00 0.00 0.00 28 1011.7
20260510093953 68 180 0.0 0.0 0.00 0.00 0.00 28 1011.5
20260510093449 69 184 1.0 2.0 0.00 0.00 0.00 26 1011.6
20260510092945 70 188 1.0 1.0 0.00 0.00 0.00 25 1011.5
20260510092443 69 168 0.0 1.0 0.00 0.00 0.00 25 1011.5
20260510091942 69 181 1.0 1.0 0.00 0.00 0.00 25 1011.7
20260510091440 69 190 0.0 1.0 0.00 0.00 0.00 25 1011.9
20260510090936 68 177 1.0 1.0 0.00 0.00 0.00 26 1011.4
20260510090433 69 177 0.0 1.0 0.00 0.00 0.00 27 1011.6
20260510085928 69 208 3.0 3.0 0.00 0.00 0.00 26 1011.7
20260510085424 70 205 4.0 5.0 0.00 0.00 0.00 25 1011.7
20260510084919 70 201 3.0 3.0 0.00 0.00 0.00 25 1011.9
20260510084417 69 177 0.0 0.0 0.00 0.00 0.00 26 1011.9
20260510083913 70 189 0.0 1.0 0.00 0.00 0.00 26 1011.7
20260510083410 70 150 1.0 1.0 0.00 0.00 0.00 25 1011.6
20260510082905 71 182 3.0 3.0 0.00 0.00 0.00 24 1011.8
20260510082404 71 193 4.0 5.0 0.00 0.00 0.00 24 1011.6
20260510081902 71 144 1.0 1.0 0.00 0.00 0.00 25 1011.8
20260510081358 71 104 1.0 2.0 0.00 0.00 0.00 25 1012.0
20260510080855 72 196 1.0 1.0 0.00 0.00 0.00 25 1011.9
20260510080348 72 196 7.0 7.0 0.00 0.00 0.00 24 1012.0
20260510075846 72 67 2.0 2.0 0.00 0.00 0.00 25 1011.9
20260510075344 71 130 1.0 2.0 0.00 0.00 0.00 25 1011.9
20260510074840 70 179 0.0 0.0 0.00 0.00 0.00 26 1011.9
20260510074337 70 181 1.0 2.0 0.00 0.00 0.00 26 1011.9
20260510073833 71 195 3.0 3.0 0.00 0.00 0.00 27 1012.1
20260510073329 73 174 0.0 1.0 0.00 0.00 0.00 27 1012.0
20260510072825 74 182 0.0 1.0 0.00 0.00 0.00 25 1011.8
20260510072323 75 118 1.0 2.0 0.00 0.00 0.00 24 1011.8
20260510071819 76 96 1.0 1.0 0.00 0.00 0.00 23 1011.8
20260510071315 78 117 1.0 1.0 0.00 0.00 0.00 22 1011.9
20260510070814 79 168 1.0 1.0 0.00 0.00 0.00 19 1012.0
20260510070310 78 124 1.0 1.0 0.00 0.00 0.00 20 1012.0
20260510065810 78 111 1.0 1.0 0.00 0.00 0.00 21 1011.7
20260510065307 79 93 1.0 1.0 0.00 0.00 0.00 20 1011.9
20260510064804 80 173 0.0 0.0 0.00 0.00 0.00 18 1011.8
20260510064302 80 177 0.0 0.0 0.00 0.00 0.00 18 1011.6
20260510063757 81 234 2.0 2.0 0.00 0.00 0.00 18 1011.6
20260510063254 81 221 2.0 2.0 0.00 0.00 0.00 18 1011.5
20260510062751 81 222 2.0 2.0 0.00 0.00 0.00 18 1011.5
20260510062247 81 244 3.0 3.0 0.00 0.00 0.00 18 1011.5
20260510061742 81 243 3.0 3.0 0.00 0.00 0.00 18 1011.4
20260510061240 81 295 5.0 5.0 0.00 0.00 0.00 19 1011.1
20260510060735 78 283 3.0 3.0 0.00 0.00 0.00 21 1011.2
20260510060233 77 239 4.0 5.0 0.00 0.00 0.00 23 1011.1
20260510055729 76 171 1.0 1.0 0.00 0.00 0.00 24 1011.1
20260510055227 75 176 1.0 1.0 0.00 0.00 0.00 24 1011.0
20260510054722 74 161 2.0 2.0 0.00 0.00 0.00 26 1011.0
20260510054218 74 219 3.0 3.0 0.00 0.00 0.00 28 1010.7
20260510053717 75 195 2.0 2.0 0.00 0.00 0.00 28 1010.6
20260510053214 78 188 0.0 0.0 0.00 0.00 0.00 22 1010.6
20260510052709 79 175 0.0 0.0 0.00 0.00 0.00 22 1010.5
20260510052206 78 153 0.0 0.0 0.00 0.00 0.00 22 1010.6
20260510051702 78 111 1.0 1.0 0.00 0.00 0.00 24 1010.3
20260510051159 79 100 1.0 2.0 0.00 0.00 0.00 24 1010.5
20260510050656 79 182 0.0 0.0 0.00 0.00 0.00 22 1010.5
20260510050153 78 170 0.0 1.0 0.00 0.00 0.00 21 1010.5
20260510045649 77 176 0.0 0.0 0.00 0.00 0.00 23 1010.6
20260510045146 78 177 0.0 0.0 0.00 0.00 0.00 25 1010.5
20260510044642 80 189 1.0 1.0 0.00 0.00 0.00 23 1009.9
20260510044140 82 185 0.0 0.0 0.00 0.00 0.00 19 1010.1
20260510043636 82 143 0.0 0.0 0.00 0.00 0.00 19 1010.1
20260510043132 82 165 0.0 0.0 0.00 0.00 0.00 18 1010.2
20260510042630 82 154 1.0 1.0 0.00 0.00 0.00 18 1009.9
20260510042126 80 198 0.0 0.0 0.00 0.00 0.00 19 1010.1
20260510041623 81 194 0.0 0.0 0.00 0.00 0.00 20 1009.9
20260510041120 81 65 1.0 1.0 0.00 0.00 0.00 20 1009.7
20260510040618 81 75 1.0 1.0 0.00 0.00 0.00 22 1009.8
20260510040114 84 31 1.0 1.0 0.00 0.00 0.00 19 1009.6
20260510035609 84 330 1.0 2.0 0.00 0.00 0.00 17 1009.6
20260510035104 84 350 1.0 1.0 0.00 0.00 0.00 18 1009.6
20260510034602 84 221 1.0 1.0 0.00 0.00 0.00 18 1009.5
20260510034059 84 353 1.0 1.0 0.00 0.00 0.00 19 1009.3
20260510033555 84 357 1.0 1.0 0.00 0.00 0.00 18 1009.5
20260510033053 83 221 0.0 0.0 0.00 0.00 0.00 19 1009.0
20260510032549 85 181 0.0 0.0 0.00 0.00 0.00 18 1009.2
20260510032044 85 145 0.0 0.0 0.00 0.00 0.00 16 1009.0
20260510031539 85 187 0.0 0.0 0.00 0.00 0.00 16 1009.3
20260510031035 86 168 0.0 0.0 0.00 0.00 0.00 16 1009.2
20260510030531 87 140 0.0 1.0 0.00 0.00 0.00 16 1009.0
20260510030029 87 270 1.0 1.0 0.00 0.00 0.00 15 1009.1
20260510025525 88 340 2.0 2.0 0.00 0.00 0.00 14 1009.0
20260510025023 88 338 2.0 2.0 0.00 0.00 0.00 14 1008.6
20260510024520 88 21 2.0 2.0 0.00 0.00 0.00 14 1008.6
20260510024015 89 21 2.0 2.0 0.00 0.00 0.00 14 1008.6
20260510023512 89 359 3.0 3.0 0.00 0.00 0.00 14 1008.6
20260510023009 89 355 3.0 3.0 0.00 0.00 0.00 13 1008.7
20260510022508 89 18 2.0 2.0 0.00 0.00 0.00 13 1008.7
20260510022008 90 358 3.0 3.0 0.00 0.00 0.00 13 1008.6
20260510021505 90 326 3.0 3.0 0.00 0.00 0.00 13 1008.6
20260510021002 91 337 4.0 5.0 0.00 0.00 0.00 13 1008.5
20260510020456 91 341 4.0 5.0 0.00 0.00 0.00 13 1008.4
20260510015952 91 345 3.0 3.0 0.00 0.00 0.00 13 1008.3
20260510015448 91 19 5.0 6.0 0.00 0.00 0.00 13 1008.4
20260510014944 91 350 3.0 3.0 0.00 0.00 0.00 13 1008.5
20260510014442 92 341 7.0 8.0 0.00 0.00 0.00 12 1008.3
20260510013938 92 345 3.0 5.0 0.00 0.00 0.00 12 1008.3
20260510013432 92 352 3.0 3.0 0.00 0.00 0.00 13 1008.3
20260510012928 92 345 6.0 7.0 0.00 0.00 0.00 12 1008.4
20260510012423 92 0 3.0 3.0 0.00 0.00 0.00 13 1008.2
20260510011918 92 305 3.0 3.0 0.00 0.00 0.00 14 1008.4
20260510011414 93 328 8.0 11.0 0.00 0.00 0.00 12 1008.3
20260510010910 93 19 6.0 7.0 0.00 0.00 0.00 12 1008.4
20260510010408 93 353 5.0 6.0 0.00 0.00 0.00 13 1008.2
20260510005904 93 350 5.0 8.0 0.00 0.00 0.00 13 1008.2
20260510005400 93 311 3.0 5.0 0.00 0.00 0.00 13 1008.2
20260510004858 93 2 9.0 11.0 0.00 0.00 0.00 12 1008.5
20260510004355 93 303 5.0 6.0 0.00 0.00 0.00 13 1008.2
20260510003853 94 331 6.0 8.0 0.00 0.00 0.00 12 1008.3
20260510003350 94 320 3.0 6.0 0.00 0.00 0.00 12 1008.2
20260510002848 93 328 5.0 6.0 0.00 0.00 0.00 12 1008.3
20260510002346 94 295 6.0 7.0 0.00 0.00 0.00 13 1008.3
20260510001842 94 254 7.0 9.0 0.00 0.00 0.00 12 1008.3
20260510001341 94 19 4.0 5.0 0.00 0.00 0.00 12 1008.5
20260510000836 94 6 6.0 7.0 0.00 0.00 0.00 13 1008.5
20260510000334 94 153 4.0 6.0 0.00 0.00 0.00 13 1008.5
20260509235830 94 344 4.0 5.0 0.00 0.00 0.00 13 1008.5
20260509235327 94 346 8.0 11.0 0.00 0.00 0.00 12 1008.3
20260509234823 95 358 9.0 9.0 0.00 0.00 0.00 12 1008.4
20260509234320 95 307 5.0 6.0 0.00 0.00 0.00 14 1008.5
20260509233818 95 329 7.0 7.0 0.00 0.00 0.00 13 1008.9
20260509233315 95 284 6.0 7.0 0.00 0.00 0.00 14 1008.7
20260509232811 95 311 7.0 8.0 0.00 0.00 0.00 12 1008.6
20260509232309 95 251 5.0 7.0 0.00 0.00 0.00 12 1008.6
20260509231805 95 309 5.0 6.0 0.00 0.00 0.00 13 1008.9
20260509231302 95 302 3.0 3.0 0.00 0.00 0.00 12 1008.6
20260509230800 95 320 7.0 9.0 0.00 0.00 0.00 13 1008.7
20260509230257 95 281 9.0 10.0 0.00 0.00 0.00 13 1008.7
20260509225751 95 213 9.0 10.0 0.00 0.00 0.00 14 1009.0
20260509225248 95 351 5.0 7.0 0.00 0.00 0.00 13 1009.0
20260509224743 95 309 1.0 2.0 0.00 0.00 0.00 12 1009.0
20260509224241 95 321 3.0 3.0 0.00 0.00 0.00 13 1009.1
20260509223738 95 349 4.0 5.0 0.00 0.00 0.00 13 1009.2
20260509223235 95 342 8.0 10.0 0.00 0.00 0.00 13 1009.3
20260509222731 95 244 3.0 3.0 0.00 0.00 0.00 14 1009.4
20260509222226 95 323 7.0 8.0 0.00 0.00 0.00 14 1009.4
20260509221722 95 315 6.0 7.0 0.00 0.00 0.00 13 1009.3
20260509221219 95 209 9.0 9.0 0.00 0.00 0.00 13 1009.7
20260509220715 95 288 6.0 6.0 0.00 0.00 0.00 13 1009.4
20260509220211 95 278 5.0 7.0 0.00 0.00 0.00 12 1009.5
20260509215707 96 324 6.0 9.0 0.00 0.00 0.00 14 1009.7
20260509215204 94 8 5.0 6.0 0.00 0.00 0.00 12 1009.5
20260509214701 94 339 7.0 8.0 0.00 0.00 0.00 13 1009.8
20260509214158 94 324 5.0 6.0 0.00 0.00 0.00 14 1009.9
20260509213655 95 18 6.0 9.0 0.00 0.00 0.00 13 1010.3
20260509213150 95 267 7.0 8.0 0.00 0.00 0.00 12 1010.1
20260509212648 94 183 6.0 7.0 0.00 0.00 0.00 14 1010.3
20260509212145 94 241 4.0 5.0 0.00 0.00 0.00 14 1010.3
20260509211641 94 245 7.0 8.0 0.00 0.00 0.00 12 1010.5
20260509211138 95 286 2.0 3.0 0.00 0.00 0.00 13 1010.4
20260509210635 94 276 8.0 9.0 0.00 0.00 0.00 13 1010.4
20260509210132 93 229 6.0 8.0 0.00 0.00 0.00 12 1010.5
20260509205627 93 279 3.0 5.0 0.00 0.00 0.00 15 1010.7
20260509205121 94 318 4.0 6.0 0.00 0.00 0.00 15 1010.8
20260509204618 94 236 7.0 8.0 0.00 0.00 0.00 14 1010.8
20260509204114 95 22 3.0 5.0 0.00 0.00 0.00 14 1011.0
20260509203610 93 337 5.0 6.0 0.00 0.00 0.00 14 1011.0
20260509203108 94 47 3.0 5.0 0.00 0.00 0.00 15 1010.9
20260509202603 94 356 5.0 6.0 0.00 0.00 0.00 15 1011.2
20260509202058 93 345 1.0 2.0 0.00 0.00 0.00 15 1011.4
20260509201553 93 278 9.0 11.0 0.00 0.00 0.00 15 1011.2
20260509201052 94 318 3.0 3.0 0.00 0.00 0.00 15 1011.6
20260509200550 93 282 6.0 7.0 0.00 0.00 0.00 14 1011.4
20260509200047 93 204 2.0 2.0 0.00 0.00 0.00 16 1011.5
20260509195543 93 162 8.0 10.0 0.00 0.00 0.00 16 1011.5
20260509195037 93 278 5.0 6.0 0.00 0.00 0.00 14 1011.5
20260509194532 93 351 3.0 6.0 0.00 0.00 0.00 14 1011.8
20260509194031 93 108 6.0 7.0 0.00 0.00 0.00 14 1011.6
20260509193531 92 241 5.0 7.0 0.00 0.00 0.00 14 1011.8
20260509193027 91 317 6.0 8.0 0.00 0.00 0.00 16 1011.8
20260509192524 91 233 2.0 2.0 0.00 0.00 0.00 15 1011.9
20260509192019 92 354 6.0 9.0 0.00 0.00 0.00 15 1011.9
20260509191514 91 301 4.0 5.0 0.00 0.00 0.00 17 1012.1
20260509191010 91 305 4.0 5.0 0.00 0.00 0.00 18 1012.0
20260509190507 91 297 3.0 3.0 0.00 0.00 0.00 16 1011.9
20260509190006 92 214 1.0 1.0 0.00 0.00 0.00 18 1012.0
20260509185502 91 91 1.0 2.0 0.00 0.00 0.00 16 1012.2
20260509184958 91 359 5.0 6.0 0.00 0.00 0.00 16 1012.2
20260509184457 89 331 3.0 3.0 0.00 0.00 0.00 18 1012.3
20260509183952 90 351 3.0 3.0 0.00 0.00 0.00 17 1012.4
20260509183447 90 328 3.0 3.0 0.00 0.00 0.00 21 1012.5
20260509182944 88 85 5.0 7.0 0.00 0.00 0.00 19 1012.5
20260509182440 88 322 5.0 6.0 0.00 0.00 0.00 18 1012.9
20260509181937 88 318 6.0 7.0 0.00 0.00 0.00 23 1012.8
20260509181435 89 300 7.0 8.0 0.00 0.00 0.00 19 1012.8
20260509180933 87 155 0.0 0.0 0.00 0.00 0.00 18 1012.8
20260509180428 87 214 4.0 5.0 0.00 0.00 0.00 19 1013.0
20260509175925 87 275 5.0 6.0 0.00 0.00 0.00 24 1013.3
20260509175421 87 185 4.0 5.0 0.00 0.00 0.00 19 1013.1
20260509174917 86 244 6.0 7.0 0.00 0.00 0.00 19 1013.1
20260509174414 85 236 3.0 3.0 0.00 0.00 0.00 21 1013.3
20260509173910 85 285 8.0 8.0 0.00 0.00 0.00 20 1013.1
20260509173409 87 279 5.0 7.0 0.00 0.00 0.00 20 1013.4
20260509172906 85 2 2.0 2.0 0.00 0.00 0.00 20 1013.2
20260509172403 85 249 4.0 6.0 0.00 0.00 0.00 22 1013.3
20260509171859 84 256 3.0 3.0 0.00 0.00 0.00 21 1013.3
20260509171355 85 230 4.0 5.0 0.00 0.00 0.00 22 1013.4